Vorticity
12 10 5 7 13 8 9 7 9 9 8 5 7 9 7 12 12 15 9 12 10 5 11 21 18 16 11 6 6 9 6 14 11 7 9 7 8 7 9 10 8 11 12
22 4 5 10 10 7 9 11 7 7 9 10 6 7 9 11 12 7 7 11 6 3 3 2 1 2 4 7 8 8 11 8 15 18 16 16 17 15 13 13 9 13 15
8 8 10 8 8 7 11 13 9 7 6 9 11 11 12 9 7 3 1 2 1 0 -0 1 2 0 1 3 4 4 4 3 4 3 3 5 7 7 9 8 7 4 4
11 8 7 6 11 9 4 13 6 6 5 7 7 9 13 9 8 6 5 4 4 3 3 2 2 5 4 4 5 7 7 7 7 6 5 5 4 5 5 5 6 4 3
6 7 9 9 8 7 8 13 10 7 6 7 7 9 8 10 8 6 6 5 4 4 5 6 7 9 12 14 13 11 11 9 6 5 5 4 4 4 3 3 4 2 2
17 7 11 5 4 4 12 7 15 10 6 7 7 10 11 10 10 9 8 8 9 10 12 14 13 11 8 7 2 5 7 8 8 8 10 11 10 11 10 8 7 10 10
4 7 4 3 5 3 12 8 9 10 15 12 7 7 9 9 9 12 14 15 11 10 5 1 6 8 6 7 4 7 9 8 9 6 9 9 9 10 7 7 6 9 10
9 20 18 3 17 6 16 6 12 7 9 11 14 17 10 12 14 6 5 6 5 1 3 9 9 10 9 7 8 8 7 9 7 8 7 9 9 11 12 11 10 9 -1
26 5 6 5 2 6 8 23 5 9 11 11 13 15 15 0 2 2 4 5 7 10 11 8 5 7 10 7 10 9 12 11 15 11 13 13 12 8 14 11 13 8 14
4 9 4 9 5 10 4 17 14 8 11 10 2 -2 2 5 9 9 10 11 8 2 6 9 8 6 5 9 7 10 10 9 9 11 11 12 11 11 11 13 11 11 11
7 6 7 5 9 2 4 7 9 9 8 8 2 4 6 6 12 11 6 4 4 6 3 4 9 9 7 8 7 6 8 12 11 12 12 12 11 10 11 11 13 13 13
7 5 8 7 7 13 7 2 6 4 5 5 5 5 4 4 4 5 6 8 7 7 5 6 6 6 3 3 7 8 8 10 11 11 9 8 8 8 11 13 14 13 15
7 10 3 6 7 6 8 7 6 5 4 5 3 4 5 5 5 4 6 7 8 3 4 5 4 4 7 11 12 10 6 10 12 11 10 11 10 11 11 13 14 13 11
4 9 5 14 6 7 6 7 -3 17 14 7 4 3 4 5 8 9 9 9 8 3 4 5 2 9 14 16 11 10 13 17 10 9 11 9 10 11 11 11 9 10 10
5 3 4 6 7 5 14 23 10 3 4 10 10 8 10 11 9 8 7 8 6 5 6 6 11 15 11 11 15 16 14 12 14 17 15 14 14 14 12 11 11 11 11
7 6 6 5 8 6 7 3 3 4 10 12 11 10 8 5 7 8 9 6 6 10 12 11 13 12 15 15 12 12 12 12 12 13 14 14 14 15 15 17 16 17 15
7 7 6 5 6 7 8 8 9 10 12 12 8 7 6 14 13 4 4 7 9 9 10 13 14 13 13 10 11 11 12 11 11 12 12 12 12 13 16 15 17 13 22
8 7 7 6 6 7 8 11 11 10 9 6 4 7 12 10 5 5 7 9 12 15 13 12 13 12 9 6 7 11 16 16 16 13 11 9 7 4 5 5 9 12 14
11 9 8 8 10 11 12 11 8 8 8 5 9 10 6 6 7 10 13 14 13 12 13 12 12 11 10 11 12 12 9 6 5 7 6 6 5 5 5 6 7 7 9
9 11 10 10 10 9 9 9 8 7 8 4 12 4 7 10 15 16 14 11 11 11 13 15 15 14 12 11 10 9 7 5 5 6 7 7 8 8 8 8 8 10 10
9 17 10 11 11 12 12 8 12 18 10 5 9 8 13 18 16 13 10 11 10 12 12 9 8 7 10 10 8 7 8 10 12 13 14 14 14 12 11 12 15 13 10
17 16 18 19 15 8 12 9 4 13 22 18 13 11 15 11 11 11 11 12 11 10 9 9 10 11 10 9 11 13 15 18 21 20 18 16 15 17 17 16 18 19 18
6 5 23 7 8 -2 9 17 17 16 9 9 16 15 12 10 10 11 11 11 6 9 13 13 11 13 17 19 18 15 13 10 10 15 18 20 19 17 15 15 15 15 15
24 19 1 1 2 13 13 16 14 4 15 13 8 9 13 9 13 9 8 10 14 11 11 18 16 8 5 8 12 14 12 11 8 9 9 12 15 16 15 15 16 15 15
3 17 25 21 16 8 11 12 12 12 9 4 6 8 7 10 11 17 11 7 12 18 10 5 5 11 15 11 8 12 14 8 10 11 12 12 9 9 13 15 17 18 17
13 6 7 6 8 10 11 10 10 5 5 16 10 11 16 16 9 10 17 16 8 7 6 9 11 12 13 15 14 14 12 10 10 10 12 12 13 12 11 9 9 11 14
Height
5857 5865 5865 5867 5869 5866 5866 5865 5863 5862 5862 5861 5860 5860 5859 5857 5855 5853 5853 5851 5850 5848 5847 5846 5843 5843 5843 5843 5843 5843 5844 5844 5844 5844 5844 5844 5843 5843 5843 5842 5841 5840 5838
5858 5863 5863 5866 5866 5864 5865 5865 5862 5861 5860 5860 5859 5859 5858 5857 5855 5854 5853 5853 5852 5850 5849 5847 5846 5845 5844 5844 5843 5843 5843 5842 5841 5841 5841 5840 5838 5838 5837 5836 5835 5835 5833
5860 5861 5862 5863 5863 5863 5864 5863 5862 5860 5859 5859 5858 5858 5858 5856 5855 5854 5853 5853 5852 5851 5850 5848 5848 5847 5845 5844 5843 5843 5842 5840 5839 5838 5836 5835 5834 5833 5832 5831 5830 5829 5827
5865 5862 5861 5861 5860 5861 5863 5862 5860 5859 5858 5857 5857 5857 5857 5855 5854 5853 5852 5851 5851 5850 5848 5848 5847 5846 5844 5842 5840 5839 5838 5836 5835 5833 5832 5830 5829 5827 5826 5825 5824 5821 5819
5868 5865 5862 5860 5860 5859 5860 5860 5859 5857 5856 5855 5855 5855 5855 5854 5853 5852 5851 5849 5849 5848 5846 5845 5844 5843 5841 5839 5837 5836 5835 5833 5831 5829 5827 5824 5822 5820 5818 5816 5814 5812 5809
5863 5866 5864 5860 5859 5859 5857 5857 5856 5855 5854 5853 5853 5852 5852 5850 5850 5850 5848 5847 5846 5844 5843 5842 5841 5839 5838 5836 5834 5832 5830 5828 5826 5823 5821 5818 5815 5813 5810 5807 5804 5802 5800
5861 5860 5859 5854 5857 5856 5855 5855 5853 5853 5852 5851 5850 5849 5849 5847 5846 5846 5845 5843 5842 5841 5839 5838 5836 5835 5834 5832 5829 5826 5824 5821 5819 5816 5812 5810 5806 5803 5801 5798 5795 5792 5789
5859 5859 5856 5854 5855 5853 5851 5852 5851 5852 5851 5848 5847 5846 5846 5845 5844 5842 5842 5840 5838 5837 5835 5833 5831 5829 5827 5825 5822 5820 5817 5813 5810 5807 5803 5800 5798 5795 5791 5788 5785 5782 5779
5859 5854 5852 5851 5850 5849 5849 5850 5850 5850 5849 5846 5844 5843 5844 5843 5841 5840 5839 5837 5834 5831 5829 5828 5826 5823 5820 5818 5815 5811 5808 5805 5801 5797 5793 5790 5787 5784 5780 5777 5774 5771 5768
5854 5853 5852 5850 5850 5848 5849 5848 5847 5846 5847 5845 5843 5841 5840 5840 5838 5835 5833 5832 5829 5827 5824 5821 5818 5815 5812 5809 5805 5802 5799 5795 5790 5787 5783 5779 5776 5773 5770 5766 5763 5760 5757
5852 5849 5849 5848 5847 5847 5846 5846 5844 5843 5842 5842 5841 5839 5836 5834 5832 5830 5828 5826 5824 5821 5818 5815 5812 5807 5803 5799 5795 5792 5789 5786 5781 5776 5773 5769 5766 5763 5759 5755 5752 5749 5746
5845 5845 5845 5844 5843 5843 5843 5842 5840 5839 5838 5836 5835 5834 5832 5830 5827 5824 5821 5818 5815 5813 5810 5807 5803 5799 5794 5790 5787 5783 5778 5774 5770 5766 5762 5759 5755 5752 5749 5745 5742 5739 5735
5841 5841 5840 5839 5838 5837 5838 5837 5835 5833 5831 5830 5829 5827 5826 5823 5820 5817 5814 5812 5807 5804 5800 5796 5793 5789 5785 5781 5778 5773 5768 5764 5760 5756 5752 5748 5745 5741 5738 5734 5732 5729 5725
5835 5835 5834 5833 5832 5832 5832 5831 5829 5827 5826 5824 5822 5819 5817 5815 5812 5809 5807 5804 5800 5796 5791 5787 5783 5778 5775 5771 5767 5762 5758 5754 5750 5746 5741 5737 5733 5730 5726 5723 5720 5717 5714
5830 5828 5828 5827 5826 5825 5824 5823 5823 5822 5820 5817 5815 5812 5809 5806 5803 5800 5797 5794 5790 5786 5782 5777 5773 5768 5764 5760 5755 5750 5745 5742 5739 5735 5730 5726 5722 5718 5714 5711 5708 5705 5702
5823 5823 5822 5821 5820 5819 5818 5817 5815 5813 5811 5808 5806 5803 5800 5797 5794 5791 5787 5784 5780 5776 5771 5766 5762 5758 5754 5749 5745 5741 5736 5731 5727 5724 5719 5715 5712 5708 5704 5701 5697 5694 5691
5816 5815 5814 5814 5812 5811 5810 5809 5807 5804 5802 5800 5797 5794 5791 5788 5784 5781 5778 5774 5769 5764 5760 5756 5752 5748 5744 5740 5736 5732 5728 5723 5718 5714 5710 5706 5702 5698 5694 5690 5687 5683 5680
5807 5806 5806 5805 5804 5803 5801 5799 5797 5795 5793 5790 5787 5784 5781 5778 5775 5771 5767 5762 5758 5754 5750 5746 5742 5738 5734 5731 5727 5723 5718 5714 5710 5706 5702 5698 5694 5690 5686 5682 5678 5675 5671
5799 5799 5798 5797 5795 5793 5791 5790 5788 5786 5783 5781 5778 5775 5771 5768 5764 5760 5756 5751 5748 5744 5740 5737 5733 5729 5725 5721 5718 5714 5709 5706 5702 5698 5694 5690 5686 5681 5677 5673 5669 5665 5661
5791 5790 5789 5787 5784 5781 5780 5779 5777 5774 5772 5770 5767 5764 5761 5757 5753 5748 5744 5741 5738 5735 5732 5728 5724 5720 5716 5712 5708 5703 5699 5695 5690 5686 5682 5678 5674 5669 5665 5661 5657 5654 5651
5779 5779 5777 5775 5773 5771 5770 5768 5765 5762 5761 5759 5756 5753 5749 5746 5743 5739 5734 5732 5729 5725 5722 5718 5714 5710 5706 5702 5697 5692 5687 5683 5678 5674 5669 5664 5660 5655 5651 5647 5644 5640 5637
5769 5768 5766 5764 5763 5762 5760 5757 5754 5752 5751 5748 5745 5742 5740 5736 5732 5729 5725 5722 5719 5715 5711 5707 5703 5698 5694 5690 5685 5680 5675 5669 5665 5660 5655 5650 5646 5641 5637 5632 5629 5626 5623
5758 5756 5755 5756 5754 5752 5751 5749 5746 5743 5740 5738 5736 5733 5730 5727 5723 5720 5717 5714 5710 5705 5701 5697 5693 5688 5683 5679 5674 5669 5664 5659 5653 5649 5643 5638 5632 5627 5624 5620 5616 5612 5609
5747 5747 5745 5744 5743 5742 5740 5738 5737 5735 5733 5730 5727 5724 5721 5718 5715 5712 5707 5703 5699 5696 5692 5688 5682 5677 5673 5668 5663 5658 5653 5648 5643 5637 5632 5627 5623 5617 5612 5607 5603 5599 5596
5738 5737 5736 5735 5733 5731 5730 5730 5727 5725 5723 5720 5718 5715 5712 5708 5705 5701 5697 5693 5690 5686 5682 5677 5672 5667 5661 5656 5651 5646 5641 5636 5631 5626 5621 5616 5611 5606 5601 5596 5592 5588 5584
5730 5730 5728 5727 5725 5723 5722 5719 5717 5715 5714 5712 5708 5705 5702 5698 5695 5691 5688 5684 5680 5675 5671 5666 5661 5656 5650 5645 5639 5635 5630 5625 5620 5614 5609 5604 5599 5594 5589 5584 5580 5576 5572